Flag for Switzerland Weather past 2 weeks in Oftringen, Aargau, Switzerland

Now
42 °F

Quite cool.


Feels Like: 40 °F
Forecast: 30 / 38 °F
Wind: 5 mph from Southwest

Location: Wynau

Current Time: Dec 25, 2014 at 9:49:38 AM

Latest Report: Dec 25, 2014 at 9:00 AM


Visibility: N/A

Pressure: 30.33 "Hg

Humidity: 81%

Dew point: 37 °F

Location of OftringenLocation

Historic Weather in Oftringen — Graph

°F

Oftringen temperature yesterday

Maximum temperature yesterday: 45 °F (at 3:00 PM)
Minimum temperature yesterday: 24 °F (at 8:00 AM)
Average temperature yesterday: 33 °F

Past Weeks' High & Low Weather Summary

 TemperatureHumidityPressure
High55 °F (Dec 19, 2:00 PM)100% (Dec 12, 7:00 AM)30.63 "Hg (Dec 12, 7:00 AM)
Low24 °F (Dec 24, 8:00 AM)56% (Dec 23, 3:00 PM)29.88 "Hg (Dec 12, 4:00 PM)
Average40 °F88%30.22 "Hg
* Reported Dec 10 8:00 AM — Dec 25 8:00 AM, Oftringen, Weather by CustomWeather, © 2014

Note: Actual official high and low records may vary slightly from our data, if they occured in-between our weather recording intervals... More about our weather records

Advertising

Oftringen weather history for previous 24 hours

 ConditionsComfort  
Time TempWeatherWind HumidityBarometerVisibility
8:00 AM
Dec 25
42 °FQuite cool.5 mph83%30.32 "HgN/A
7:00 AM41 °FQuite cool.2 mph87%30.32 "HgN/A
6:00 AM42 °FQuite cool.3 mph81%30.31 "HgN/A
5:00 AM42 °FQuite cool.3 mph78%30.31 "HgN/A
3:00 AM43 °FQuite cool.7 mph74%30.32 "HgN/A
2:00 AM43 °FQuite cool.8 mph76%30.32 "HgN/A
1:00 AM42 °FQuite cool.9 mph78%30.32 "HgN/A
12:00 AM43 °FQuite cool.7 mph78%30.33 "HgN/A
11:00 PM
Dec 24
42 °FQuite cool.5 mph78%30.34 "HgN/A
10:00 PM40 °FQuite cool.5 mph80%30.36 "HgN/A
9:00 PM39 °FChilly.6 mph85%30.37 "HgN/A
8:00 PM38 °FChilly.5 mph81%30.36 "HgN/A
7:00 PM35 °FChilly.2 mph91%30.36 "HgN/A
6:00 PM36 °FChilly.3 mph92%30.34 "HgN/A
5:00 PM39 °FChilly.2 mph88%30.33 "HgN/A
4:00 PM44 °FQuite cool.5 mph75%30.30 "HgN/A
3:00 PM45 °FQuite cool.6 mph72%30.30 "HgN/A
2:00 PM44 °FQuite cool.5 mph76%30.31 "HgN/A
1:00 PM37 °FChilly.No wind88%30.36 "HgN/A
12:00 PM34 °FChilly.1 mph94%30.39 "HgN/A
11:00 AM30 °FChilly.1 mph93%30.42 "HgN/A
10:00 AM28 °FChilly.2 mph95%30.42 "HgN/A
9:00 AM25 °FChilly.No wind100%30.42 "HgN/A
Weather by CustomWeather, © 2014

See weather overviewHow to use our weather pages